Weather in Madrid

Spain     40˚25′09″N   3˚42′03″W
temp.,
°C
wind,
m/s
gust,
m/s
humid.,
%
clouds,
%
prec.,
mm/h
press.,
hPa
HPBL,
m
3 december, thu
thu301:00+6˚nne004812 0.0 1021176
04:00+5˚ene22550 0.0 1021179
07:00+4˚e12600 0.0 1019179
10:00+5˚ssw12550 0.0 1017313
13:00+7˚sw45500 0.0 1013559
16:00+9˚sw594180 0.0 1009555
19:00+7˚wsw585490 0.0 1008288
22:00+6˚sw4861100 0.0 1006427
4 december, fri
fri401:00+4˚sw5971100 0.0 1003395
04:00+5˚wsw6138072 0.0 999611
07:00+5˚nw6117082 2.0 9991058
10:00+5˚wnw7125122 0.0 10001216
13:00+7˚w7113728 0.0 9992003
16:00+7˚w7104274 0.2 9971859
19:00+4˚w6105357 0.3 9971225
22:00+4˚wnw595637 0.0 999988
5 december, sat
sat501:00+3˚wnw695769 0.0 10011083
04:00+2˚w5105668 0.0 10031076
07:00+2˚wsw496266 0.0 1004758
10:00+3˚wsw485586 0.0 1005866
13:00+6˚w7124971 0.0 10051394
16:00+6˚w9145460 0.0 10041559
19:00+6˚w7115579 0.0 10071466
22:00+5˚w6116093 0.0 1008959
6 december, sun
sun601:00+4˚w7125764 0.0 1010819
04:00+3˚w711620 0.0 10101069
07:00+3˚wsw512640 0.0 1010966
10:00+4˚w613600 0.0 10111063
13:00+7˚wnw712450 0.0 10101378
16:00+7˚w713500 0.0 10101566
19:00+6˚wnw510587 0.0 10131258
22:00+5˚w510600 0.0 10151010
7 december, mon
mon701:00+4˚w58630 0.0 1017623
04:00+4˚w48670 0.0 1018615
07:00+3˚wnw36650 0.0 1018273
10:00+4˚w24610 0.0 1019352
13:00+7˚wnw57470 0.0 10181014
16:00+8˚w484976 0.0 10171370
19:00+6˚sw586882 0.3 1018514
22:00+6˚sw4884100 1.8 1017334